Retour au catalogue

FENGYUN 1C DEB

LostSSO
NORAD 31677·DEBRIS·🇨🇳 China

Lancé May 10, 1999 depuis Taiyuan Satellite Launch Center

Loading…

Prochains Passages (prochaines 24 heures)

TLE

PériméSource: Space-Track

Époque: Sep 12, 2008, 19:16 UTC

1 31677U 99025CCK 08256.80291213  .00000323  00000-0  19934-3 0  9993
2 31677 099.0640 257.7554 0037920 326.3396 045.6578 14.12216165 69809

Suivez FENGYUN 1C DEB en temps réel avec AllMySat

Download on the App Store